Погода в Смаллигерланде

Нидерланды     53°06′21″N   6°05′55″E
темп.,
°C
ветер,
м/с
пор.,
м/с
влажн.,
%
обл.,
%
осадки,
мм/ч
давл.,
гПа
погр.,
м
10 августа, ср
ср1023:00+14св479379 0.0 1029114
02:00+13св3594100 0.0 102980
05:00+13в349434 0.0 102855
08:00+15всв348577 0.0 1028138
11:00+23всв334967 0.0 1027765
14:00+28всв333389 0.0 10261635
17:00+29всв43292 0.0 10241905
20:00+24св68510 0.0 1024372
11 августа, чт
чт1123:00+16св410790 0.0 1024164
02:00+14всв36820 0.0 102485
05:00+14в33850 0.0 102438
08:00+18всв34660 0.0 1024112
11:00+27в33320 0.0 1023759
14:00+31в44240 0.0 10221901
17:00+32всв44220 0.0 10212194
20:00+25св610412 0.0 1021322
12 августа, пт
пт1223:00+18св49665 0.0 1021137
02:00+16всв47716 0.0 1022110
05:00+15в347611 0.0 102147
08:00+19в35535 0.0 1021117
11:00+29всв44295 0.0 1020728
14:00+32всв44225 0.0 10182094
17:00+33всв55215 0.0 10172409
20:00+27св58345 0.0 1018303
13 августа, сб
сб1323:00+19св49595 0.0 1018143
02:00+17всв34670 0.0 101862
05:00+17вюв33550 0.0 101822
08:00+21юв24390 0.0 1018102
11:00+31юв45220 0.0 10181381
14:00+34вюв44170 0.0 10172683
17:00+34вюв43160 0.0 10163183
20:00+29всв69270 0.0 1017449
14 августа, вс
вс1423:00+20всв36480 0.0 101783
02:00+19вюв33530 0.0 101733
05:00+18юв22564 0.0 101712
08:00+21вюв3446100 0.0 1016104
11:00+30в3423100 0.0 1015789
14:00+34вюв4417100 0.0 10132976
17:00+34ю2315100 0.0 10113431
20:00+29св3527100 0.0 1011154